IRNSS-1I

Last updated on Sun Nov 02 2025 00:02:50 GMT+0000 (Coordinated Universal Time)

1 43286U 18035A 25305.49776728 .00000113 00000+0 00000+0 0 9998 2 43286 29.0515 77.7399 0021563 179.8979 17.7934 1.00278001 27791
UTC large
Height (km)
Speed (km/s)
/
Latitude / Longitude
Inclination (degrees)
Orbital Period (minutes)
Azimuth
Elevation
Range (km)
Doppler Factor

Next 0 passes for location: London (51.5072 / 0.1276)

Sorry there are no passes over London.